Simultaneous Nadir Overpasses (SNOs) Predictions

Prediction of SNOs between GOES-16 and AQUA Satellite Orbit:

Table of predicted SNOs for the next 14.0 days since TLE Epoch: 6/16/2017
Index Date Time (GOES-16) GOES-16 Lat,Lon AQUA Lat,Lon Distance(km) Time Diff (sec)
1 06/16/2017 19:30:52 0.00, -89.51 0.23, -88.57 107.96 80
2 06/17/2017 07:52:06 -0.00, -89.52 0.91, -93.71 476.59 80
3 06/18/2017 19:18:39 0.01, -89.53 0.82, -85.60 446.69 80
4 06/19/2017 07:39:54 -0.01, -89.55 0.26, -90.76 137.84 80
5 06/21/2017 07:25:02 -0.01, -89.57 -0.40, -87.80 200.91 80
6 06/21/2017 19:46:26 0.01, -89.56 -0.74, -92.99 390.07 80
7 06/23/2017 19:34:14 0.02, -89.58 -0.08, -90.03 51.27 80
8 06/25/2017 19:24:42 0.03, -89.61 0.59, -87.08 287.88 80
9 06/26/2017 07:45:56 -0.03, -89.63 0.55, -92.23 296.31 80
10 06/28/2017 07:31:04 -0.03, -89.66 -0.11, -89.27 43.63 80
11 06/30/2017 07:18:51 -0.03, -89.69 -0.72, -86.31 384.27 80




NCC Satellite Simultaneous Nadir Overpasses (SNOs) Prediction Service
